ROMMA est une association bénévole à but non lucratif. Votre soutien est indispensable : ADHERER à ROMMA ou FAIRE un DON

Challes-les-Eaux - (73, Savoie)

Trouée des Marches (325 m)   Longitude: 05° 58' E   Latitude: 45° 32' N Station romma n°148
 

Détail journalier du     <<     >>

Température Precipitation Humidité Pression Vent Dir Rafale Dir. rafale
Heure (°C) (mm) (%) (hPa) (km/h) (km/h)
01:00 11.82.69210184NNO31NO
02:00 10.31.28910185ONO31O
03:00 10.109010182N15N
04:00 9.909110171N8NNO
05:00 9.309110171N8NE
06:00 9.209210171N6NNE
07:00 9.209210182N6N
08:00 9.409110183N10NNE
09:00 9.309110192ENE10NNO
10:00 12.208410192ENE10E
11:00 13.207810194ONO15O
12:00 14.907110205ONO19ONO
13:00 16.506010195NNO16O
14:00 17.406210196ONO21ONO
15:00 17.705810187ONO24ONO
16:00 18.105710187ONO24NO
17:00 16.806010198ONO24ONO
18:00 16.906310196ONO21OSO
19:00 14.906810195ONO18ONO
20:00 13.607410204ONO19ONO
21:00 12.307910211NNE8NNE
22:00 11.408310211N6NNO
23:00 9.9086102106N
minuit 9.2088102203N

Graphique du 07-10-2019

 

Serveur OMMA